sat.trackr.live / text

‹ back to catalog

STARLINK-4769

NORAD 53843 · 2022-114AB

PAYLOAD ACTIVE UNKNOWN

§ Identity

Operator
Country
US
Launch date
2022-09-19
Launch site
AFETR
Launch vehicle
Mass (kg)
RCS (m²)

Purposes: comms

External: N2YO · Heavens-Above · Gunter

§ Orbital elements

Epoch: 2026-09-20T22:06:11.685312Z

Period
95.44 min
Inclination
53.1599°
Eccentricity
0.0001567
Mean motion
15.08832298 rev/d
Perigee alt
538.7 km
Apogee alt
540.9 km
Semi-major
6,917.9 km
B*
-2.2746e-5
RAAN
137.1179°
Arg perigee
95.1780°
Mean anomaly
264.9390°
Rev number
22,244

§ Raw data

STARLINK-47691 53843U 22114AB  26263.92096858 -.00000650  00000+0 -22746-4 0  99962 53843  53.1599 137.1179 0001567  95.1780 264.9390 15.08832298222448

JSON: /api/v1/satellites/53843 · /tle

For live sub-satellite position, see the globe view (requires WebGL).

§ Visibility from observer

Set your observer location to see the next 7 days of passes ≥ 10°. The values pass through the URL so the page stays shareable.

No JS? Fill the form by hand. The geolocation button needs JavaScript.